Regional Weather Roundup
Issued by NWS Goodland, KS

Home | Current Version | Previous Version | Graphics & Text | Print | Product List | Glossary On
Versions: 1 2 3 4 5 6 7 8 9 10 11 12 13 14 15 16 17 18 19 20 21 22 23 24 25 26 27 28 29 30 31 32 33 34 35 36 37 38 39 40 41 42 43 44 45 46 47 48 49 50
986
ASUS43 KGLD 301859
RWRGLD

GOODLAND FORECAST AREA HOURLY WEATHER ROUNDUP
NATIONAL WEATHER SERVICE GOODLAND KS
100 PM MDT MON MAY 30 2016

...OFFICIAL OBSERVATIONS...

CITY           SKY/WX    TMP DP  RH WIND       PRES   REMARKS
GOODLAND KS    SUNNY     78  55  44 S14       29.94F
HILL CITY KS   SUNNY     83  54  36 S20G26    29.94F
IMPERIAL NEB   SUNNY     78  56  46 S14       29.92F
MCCOOK NEB     SUNNY     80  57  45 S13G21    29.91F
AKRON CO       SUNNY     76  50  40 E8        29.96F
BURLINGTON CO  SUNNY     79  49  34 S12       29.96F
LIMON CO       CLOUDY    73  48  41 SE8       30.01F
$$

...UNOFFICIAL OBSERVATIONS...

CITY           SKY/WX    TMP DP  RH WIND       PRES   REMARKS
GOVE KS          N/A     91  32  12 MISG        N/A
LENORA KS        N/A     79  32  18 MISG        N/A
SHARON SPRINGS   N/A     81  59  47 S15         N/A
KIT CARSON CO    N/A     76  51  41 CALM        N/A
YUMA CO          N/A     78  52  40 SE7G14      N/A
$$




USA.gov is the U.S. government's official web portal to all federal, state and local government web resources and services.